Regional Weather Roundup
Issued by NWS

Home | Current Version | Previous Version | Graphics & Text | Print | Product List | Glossary On
Versions: 1 2 3 4 5 6 7 8 9 10 11 12 13 14 15 16 17 18 19 20 21 22 23 24 25 26 27 28 29 30 31 32 33 34 35 36 37 38 39 40 41 42 43 44 45 46 47 48 49 50
000
ASUS43 KMPX 181010
RWRMN
WEATHER ROUNDUP FOR MINNESOTA
NATIONAL WEATHER SERVICE TWIN CITIES/CHANHASSEN MN
400 AM CST THU DEC 18 2014


NOTE: "FAIR" INDICATES FEW OR NO CLOUDS BELOW 12,000 FEET WITH NO
SIGNIFICANT WEATHER AND/OR OBSTRUCTIONS TO VISIBILITY. N/A MEANS
CURRENT SKY AND/OR WEATHER CONDITIONS ARE NOT AVAILABLE.

MNZ060>063-068>070-181100-
   Twin Cities Metro

CITY           SKY/WX    TMP DP  RH WIND       PRES   REMARKS
TWIN CITIES    MOCLDY    12   9  87 CALM      30.33S
ST PAUL        CLOUDY    16  12  84 CALM      30.35S
CRYSTAL        CLOUDY    13   9  84 CALM      30.31F
BLAINE         LGT SNOW  16  14  93 CALM      30.31F
LAKEVILLE      MOCLDY     7   7 100 CALM      30.30F
EDEN PRAIRIE   MOCLDY    10   7  87 N3        30.31F
SOUTH ST PAUL  CLOUDY    15  11  85 CALM      30.33F
LAKE ELMO      CLOUDY    18  14  86 CALM      30.33S
$$
MNZ001>005-007-008-013>017-022>024-027-028-181100-
   Northwest Minnesota

CITY           SKY/WX    TMP DP  RH WIND       PRES   REMARKS
BEMIDJI        PTCLDY     2  -1  85 CALM      30.26F
HALLOCK        PTCLDY     5   1  85 SE3       30.28S
ROSEAU         PTCLDY     5   0  78 CALM      30.28F
WARROAD        MOCLDY     5   1  85 CALM      30.29S
THIEF RVR FALL PTCLDY     9   7  92 SE5       30.27F WCI   0
CROOKSTON      FAIR       9   7  92 SE6       30.30F WCI  -1
FOSSTON        PTCLDY     3   1  92 CALM      30.27F
DETROIT LAKES  PTCLDY    10   9  92 SE3       30.26F
MOORHEAD       CLEAR      9   9 100 CALM      30.28F
PARK RAPIDS    PTCLDY     5   1  83 E3        30.25F
MAHNOMEN       FAIR       7   4  86 SE3       30.26F
$$
MNZ006-009>011-018-025>026-181100-
   North Central Minnesota

CITY           SKY/WX    TMP DP  RH WIND       PRES   REMARKS
BAUDETTE       MOCLDY     6   1  80 CALM      30.29S
FLAG ISLAND    MOCLDY     9   3  78 CALM      30.29F
INTL FALLS     PTCLDY     0  -5  79 CALM      30.31F
WASKISH        MOCLDY     1   0  92 CALM      30.29S
BIG FORK       PTCLDY     0  -6  78 CALM      30.29F
LONGVILLE      PTCLDY     0  -4  85 CALM      30.28F
GRAND RAPIDS   PTCLDY     1   0  92 CALM      30.28S
CRANE LAKE     MOCLDY    -8  -9  92 CALM      30.36S
ORR            CLOUDY     5   1  85 CALM      30.28F
COOK           FLURRIES   7   3  85 CALM      30.30F
WALKER         FAIR       0  -3  85 CALM      30.26F
$$
MNZ012-019>021-037-181100-
   Northeast Minnesota

CITY           SKY/WX    TMP DP  RH WIND       PRES   REMARKS
DULUTH         LGT SNOW  18  14  84 N3        30.28S
ELY            CLOUDY     0  -4  85 CALM      30.31F
HIBBING        CLOUDY    13   8  81 CALM      30.29F
EVELETH        FLURRIES  12  10  92 CALM      30.31F
DULUTH HARBOR  CLOUDY    21  18  86 CALM      30.35S
TWO HARBORS    CLOUDY    23  18  80 N5        30.28F WCI  17
SILVER BAY     CLOUDY    21  18  86 CALM      30.28F
GRAND MARAIS     N/A     11  -2  56 N7        30.37S WCI   0
G MARAIS ARPRT MOCLDY    -9 -17  70 NW6       30.27F WCI -23
$$
MNZ029>031-032-039>041-046>048-054>057-064-181100-
   West Central Minnesota

CITY           SKY/WX    TMP DP  RH WIND       PRES   REMARKS
FERGUS FALLS   PTCLDY    10   7  85 E5        30.31F WCI   2
WHEATON        PTCLDY     1   0  92 CALM      30.29F
MORRIS         PTCLDY     7   3  85 SE5       30.27F WCI  -2
ALEXANDRIA     PTCLDY     8   5  87 SE3       30.27S
ELBOW LAKE     FAIR       9   6  90 SE6       30.27F WCI  -1
WADENA         PTCLDY     1   0  92 CALM      30.26F
GLENWOOD       PTCLDY     7   5  92 SE3       30.27F
APPLETON       PTCLDY     3   0  85 CALM      30.29F
BENSON         MOCLDY     9   5  85 CALM      30.28F
ORTONVILLE     PTCLDY     5   1  85 CALM      30.27F
MADISON        PTCLDY     7   3  85 CALM      30.28F
WILLMAR        FAIR      10   7  85 E5        30.29F WCI   2
$$
MNZ033>034-036-042>043-049>051-058-059-181100-
   Central Minnesota

CITY           SKY/WX    TMP DP  RH WIND       PRES   REMARKS
ST CLOUD       PTCLDY    11   6  81 NE6       30.30F WCI   1
SAUK CENTRE    FAIR       5   2  88 CALM      30.28F
PAYNESVILLE    PTCLDY     4   3  94 CALM      30.30S
AITKIN         PTCLDY     1  -4  78 CALM      30.28F
PINE RIVER     PTCLDY     1   0  92 CALM      30.31F
BRAINERD       PTCLDY     1  -3  83 CALM      30.30F
STAPLES        PTCLDY     3   1  92 CALM      30.28F
LONG PRAIRIE   FAIR       5   3  92 CALM      30.28F
LITTLE FALLS     N/A      5   1  85 CALM      30.30F FOG
LITCHFIELD     PTCLDY    10  10 100 CALM      30.30F
BUFFALO        PTCLDY     9   6  89 CALM      30.32F
MAPLE LAKE     PTCLDY     9   8  92 CALM      30.32S
$$
MNZ037-044-045-052-053-181100-
   East Central Minnesota

CITY           SKY/WX    TMP DP  RH WIND       PRES   REMARKS
PRINCETON      FLURRIES  10   7  85 CALM      30.31F
MORA           CLOUDY    14  10  85 CALM      30.33F
CAMBRIDGE      FLURRIES  16  10  79 CALM      30.31S
RUSH CITY      CLOUDY    18  15  88 CALM      30.32F
MOOSE LAKE     CLOUDY    16  14  93 CALM      30.30S
HINCKLEY       FLURRIES  18  16  93 CALM      30.31F
CLOQUET        FLURRIES  18  14  86 CALM      30.30S
MCGREGOR       CLOUDY     7   3  85 CALM      30.31S
$$
MNZ071>073-080-081-089-090-097-098-181100-
   Southwest Minnesota

CITY           SKY/WX    TMP DP  RH WIND       PRES   REMARKS
MONTEVIDEO     MOCLDY     3   1  92 CALM      30.29F
GRANITE FALLS  PTCLDY     4   1  88 CALM      30.30F
CANBY          PTCLDY     3   1  88 CALM      30.28F
MARSHALL       PTCLDY     1  -4  78 CALM      30.26F
REDWOOD FALLS  PTCLDY     6   2  83 CALM      30.29F
OLIVIA         PTCLDY    10   9  92 CALM      30.28F
PIPESTONE      CLOUDY    14  10  85 CALM      30.20F
WINDOM           N/A      5   1  85 CALM      30.24F
WORTHINGTON    CLOUDY    10   9  92 E5        30.23F WCI   2
JACKSON        MOCLDY    10   7  85 NE3       30.24F
TRACY          PTCLDY     7   4  88 CALM      30.25F
SLAYTON        MOCLDY     8   6  94 CALM      30.23F
$$
MNZ065>067-074>077-082>085-091>093-181100-
   South Central Minnesota

CITY           SKY/WX    TMP DP  RH WIND       PRES   REMARKS
MANKATO        PTCLDY    14   9  79 CALM      30.29F
NEW ULM        CLOUDY    14  12  92 CALM      30.29F
ST JAMES       MOCLDY    12  10  92 CALM      30.29F
FAIRMONT       PTCLDY     9   5  85 CALM      30.26F
GLENCOE        PTCLDY    11   9  91 CALM      30.30F
FARIBAULT      PTCLDY     9   7  92 CALM      30.30F
OWATONNA       CLEAR     10   7  85 CALM      30.28F
WASECA         CLEAR     12  10  92 CALM      30.30F
ALBERT LEA     PTCLDY    14  12  92 CALM      30.27F
$$
MNZ078>079-086>088-094>096-181100-
   Southeast Minnesota

CITY           SKY/WX    TMP DP  RH WIND       PRES   REMARKS
ROCHESTER      PTCLDY    13   9  84 N3        30.27F
RED WING       FLURRIES  16  12  86 CALM      30.32F
STANTON        PTCLDY    10   7  87 E3        30.30F
DODGE CENTER   PTCLDY    10  10 100 CALM      30.26F
WINONA         CLOUDY    19  14  79 CALM      30.33F
AUSTIN         PTCLDY    12  10  92 N3        30.26F
PRESTON        PTCLDY    13  10  90 CALM      30.27F
$$
ABBREVIATIONS USED IN REMARKS
   TC - TEMPERATURES IN CELSIUS
  WCI - WIND CHILL INDEX
   HX - HEAT INDEX
  VSB - VISIBILITY
$$


USA.gov is the U.S. government's official web portal to all federal, state and local government web resources and services.